Latest Coastal Weather Observations for Norfolk Island

IDN60701

Issued at 2:41 pm EST Tuesday 25 April 2017 (issued every 10 minutes, with the page automatically refreshed every 10 minutes)

About coastal observations | Map of coastal stations | Coastal observations for NSW | Marine services | Other Formats
Station Details ID: 200288 Name: NORFOLK ISLAND AERO Lat: -29.04 Lon: 167.94 Height: 111.73 m
Data from the previous 72 hours. | See also: Recent months at Norfolk Island
Date/Time
EST
Temp
°C
Wind Pressure Rain since
9am
mm
Weather Cloud Vis
km
Sea
Height
m
Swell
Dir  Spd
kts
Gust
kts
hPa Trend Height
m
Period
s
Dir
25/02:30pm 20.6 SE 8 15 1016.9 - 0.0 - Partly cloudy 10 - - - -
25/02:00pm 21.3 SE 9 14 1016.9 - 0.0 - Cloudy 10 - - - -
25/01:30pm 21.1 SE 10 16 1016.9 - 0.0 - Partly cloudy 10 - - - -
25/01:00pm 21.2 SE 9 14 1017.3 - 0.0 - Partly cloudy 10 - - - -
25/12:30pm 21.5 SE 10 16 1017.4 - 0.0 - Partly cloudy 10 - - - -
25/12:00pm 21.7 ESE 11 15 1017.7 - 0.0 - Partly cloudy 10 - - - -
25/11:30am 21.0 SE 10 15 1018.1 - 0.0 - Partly cloudy 10 - - - -
25/11:00am 22.4 ESE 10 16 1018.4 - 0.0 - - 10 - - - -
25/10:30am 21.6 SE 13 17 1018.8 - 0.0 - - 10 - - - -
25/10:00am 22.2 SE 10 15 1019.1 - 0.0 - Partly cloudy 10 - - - -
25/09:30am 21.4 SSE 13 17 1019.4 - 0.0 - - 10 - - - -
25/09:00am 21.3 SSE 12 17 1019.6 - 0.0 - Partly cloudy 10 - - - -
25/08:30am 21.1 SE 12 17 1019.5 - 0.0 - Partly cloudy 10 - - - -
25/08:00am 21.0 SE 13 19 1019.3 - 0.0 - Partly cloudy 10 - - - -
25/07:30am 20.1 SE 11 15 1019.2 - 0.0 - Partly cloudy 10 - - - -
25/07:00am 19.9 SE 10 16 1019.0 - 0.0 - Partly cloudy 10 - - - -
25/06:30am 19.6 SE 9 15 1018.6 - 0.0 - Partly cloudy 10 - - - -
25/06:00am 19.5 ESE 10 14 1018.3 - 0.0 - Partly cloudy 10 - - - -
25/05:30am 19.2 ESE 8 15 1018.0 - 0.0 - Partly cloudy 10 - - - -
25/05:00am 19.0 ESE 8 10 1017.7 - 0.0 - Mostly cloudy 10 - - - -
25/04:30am 18.8 ESE 7 10 1017.5 - 0.0 - Partly cloudy 10 - - - -
25/04:00am 18.9 ESE 7 10 1017.3 - 0.0 - Partly cloudy 10 - - - -
25/03:30am 18.9 ESE 7 11 1017.4 - 0.0 - Partly cloudy 10 - - - -
25/03:00am 18.9 ESE 7 10 1017.2 - 0.0 - Partly cloudy 10 - - - -
25/02:30am 18.7 ESE 6 10 1017.2 - 0.0 - Partly cloudy 10 - - - -
25/02:00am 18.4 ESE 6 7 1017.4 - 0.0 - Mostly clear 10 - - - -
25/01:30am 18.5 ESE 7 10 1017.6 - 0.0 - - 10 - - - -
25/01:00am 18.8 ESE 6 10 1017.9 - 0.0 - Partly cloudy 10 - - - -
25/12:30am 18.8 ESE 6 9 1018.1 - 0.0 - Partly cloudy 10 - - - -
25/12:00am 19.3 ESE 8 12 1018.4 - 0.0 - Partly cloudy 10 - - - -
 
Date/Time
EST
Temp
°C
Wind Pressure Rain since
9am
mm
Weather Cloud Vis
km
Sea
Height
m
Swell
Dir  Spd
kts
Gust
kts
hPa Trend Height
m
Period
s
Dir
24/11:30pm 19.5 ESE 8 12 1018.5 - 0.0 - Partly cloudy 10 - - - -
24/11:00pm 19.3 ESE 8 13 1018.6 - 0.0 - Mostly cloudy 10 - - - -
24/10:30pm 19.4 ESE 8 13 1018.7 - 0.0 - Partly cloudy 10 - - - -
24/10:00pm 19.6 ESE 9 14 1018.7 - 0.0 - Partly cloudy 10 - - - -
24/09:30pm 19.3 ESE 8 11 1018.6 - 0.0 - Partly cloudy 10 - - - -
24/09:00pm 19.4 ESE 8 11 1018.6 - 0.0 - Partly cloudy 10 - - - -
24/08:30pm 19.1 ESE 7 9 1018.5 - 0.0 - Partly cloudy 10 - - - -
24/08:00pm 19.3 ESE 7 10 1018.4 - 0.0 - Mostly clear 10 - - - -
24/07:30pm 19.1 ESE 7 10 1018.2 - 0.0 - Partly cloudy 10 - - - -
24/07:00pm 19.2 ESE 7 10 1017.9 - 0.0 - Partly cloudy 10 - - - -
24/06:30pm 19.3 ESE 7 11 1017.8 - 0.0 - - 10 - - - -
24/06:00pm 19.5 ESE 8 12 1017.7 - 0.0 - Partly cloudy 10 - - - -
24/05:30pm 19.8 ESE 7 10 1017.4 - 0.0 - Partly cloudy 10 - - - -
24/05:00pm 19.6 ESE 7 10 1017.2 - 0.0 - Partly cloudy 10 - - - -
24/04:30pm 19.7 ESE 7 10 1016.9 - 0.0 - Partly cloudy 10 - - - -
24/04:00pm 19.8 ESE 8 11 1016.7 - 0.0 - Partly cloudy 10 - - - -
24/03:30pm 20.7 ESE 9 14 1016.5 - 0.0 - Partly cloudy 10 - - - -
24/03:00pm 20.9 ESE 8 12 1016.5 - 0.0 - Mostly clear 10 - - - -
24/02:30pm 21.6 ESE 8 14 1016.4 - 0.0 - Mostly clear 10 - - - -
24/02:00pm 22.0 SE 8 11 1016.5 - 0.0 - Mostly clear 10 - - - -
24/01:30pm 22.2 ESE 8 13 1016.5 - 0.0 - Mostly clear 10 - - - -
24/01:00pm 21.6 ESE 9 15 1016.7 - 0.0 - Partly cloudy 10 - - - -
24/12:30pm 21.7 ESE 10 15 1016.8 - 0.0 - Partly cloudy 10 - - - -
24/12:00pm 21.9 ESE 9 16 1016.6 - 0.0 - Partly cloudy 10 - - - -
24/11:30am 22.5 ESE 12 16 1016.7 - 0.0 - Partly cloudy 10 - - - -
24/11:00am 21.4 ESE 9 16 1016.9 - 0.0 - Cloudy 10 - - - -
24/10:30am 22.0 ESE 10 14 1017.3 - 0.0 - Partly cloudy 10 - - - -
24/10:00am 22.0 SE 9 15 1017.5 - 0.0 - Partly cloudy 10 - - - -
24/09:30am 22.0 ESE 11 16 1017.8 - 0.0 - Partly cloudy 10 - - - -
24/09:00am 21.3 SE 11 17 1018.1 - 0.0 - Partly cloudy 10 - - - -
24/08:30am 21.8 SE 9 16 1018.2 - 0.0 - Partly cloudy 10 - - - -
24/08:00am 21.5 ESE 9 15 1018.1 - 0.0 - Cloudy 10 - - - -
24/07:30am 21.0 ESE 8 10 1018.1 - 0.0 - Partly cloudy 10 - - - -
24/07:00am 21.3 ESE 8 12 1017.8 - 0.0 - Partly cloudy 10 - - - -
24/06:30am 19.8 SE 8 12 1017.7 - 0.0 - Partly cloudy 10 - - - -
24/06:00am 19.4 SE 7 10 1017.6 - 0.0 - Partly cloudy 10 - - - -
24/05:30am 19.2 ESE 8 13 1017.4 - 0.0 - Partly cloudy 10 - - - -
24/05:00am 19.4 ESE 9 15 1017.2 - 0.0 - Cloudy 10 - - - -
24/04:30am 18.9 ESE 8 11 1016.9 - 0.0 - Partly cloudy 10 - - - -
24/04:00am 18.9 SE 9 16 1016.8 - 0.0 - Partly cloudy 10 - - - -
24/03:30am 19.0 SE 11 15 1016.7 - 0.0 - Partly cloudy 10 - - - -
24/03:00am 19.2 SE 10 16 1016.6 - 0.0 - Partly cloudy 10 - - - -
24/02:30am 19.2 SE 10 17 1016.6 - 0.0 - Partly cloudy 10 - - - -
24/02:00am 19.5 SE 11 15 1016.4 - 0.0 - Mostly clear 10 - - - -
24/01:30am 19.7 SE 10 15 1016.7 - 0.0 - Partly cloudy 10 - - - -
24/01:00am 19.9 SE 9 14 1016.8 - 0.0 - Partly cloudy 10 - - - -
24/12:30am 19.5 ESE 8 12 1016.7 - 0.0 - Partly cloudy 10 - - - -
24/12:00am 19.9 ESE 9 14 1016.9 - 0.0 - Partly cloudy 10 - - - -
 
Date/Time
EST
Temp
°C
Wind Pressure Rain since
9am
mm
Weather Cloud Vis
km
Sea
Height
m
Swell
Dir  Spd
kts
Gust
kts
hPa Trend Height
m
Period
s
Dir
23/11:30pm 19.8 ESE 9 15 1017.0 - 0.0 - Partly cloudy 10 - - - -
23/11:00pm 19.9 ESE 10 15 1017.3 - 0.0 - Cloudy 10 - - - -
23/10:30pm 19.7 SE 8 10 1017.5 - 0.0 - Partly cloudy 10 - - - -
23/10:00pm 20.2 ESE 9 14 1017.7 - 0.0 - Partly cloudy 10 - - - -
23/09:30pm 20.1 ESE 8 11 1017.7 - 0.0 - Partly cloudy 10 - - - -
23/09:00pm 19.9 ESE 8 13 1017.6 - 0.0 - Partly cloudy 10 - - - -
23/08:30pm 20.0 ESE 10 15 1017.6 - 0.0 - - 10 - - - -
23/08:00pm 20.2 ESE 12 17 1017.6 - 0.0 - Mostly clear 10 - - - -
23/07:30pm 20.2 ESE 10 16 1017.8 - 0.0 - Partly cloudy 10 - - - -
23/07:00pm 20.2 ESE 9 14 1017.8 - 0.0 - Partly cloudy 10 - - - -
23/06:30pm 20.1 ESE 9 15 1017.4 - 0.0 - Partly cloudy 10 - - - -
23/06:00pm 20.2 ESE 11 16 1017.2 - 0.0 - Partly cloudy 10 - - - -
23/05:30pm 20.2 ESE 9 14 1016.8 - 0.0 - Partly cloudy 10 - - - -
23/05:00pm 20.4 ESE 10 15 1016.5 - 0.0 - Partly cloudy 10 - - - -
23/04:30pm 20.5 ESE 10 16 1016.5 - 0.0 - Partly cloudy 10 - - - -
23/04:00pm 20.6 ESE 12 19 1016.2 - 0.0 - Partly cloudy 10 - - - -
23/03:30pm 21.2 ESE 12 19 1016.1 - 0.0 - Partly cloudy 10 - - - -
23/03:00pm 21.7 ESE 12 18 1016.0 - 0.0 - Partly cloudy 10 - - - -
23/02:30pm 21.5 ESE 12 18 1015.8 - 0.0 - Partly cloudy 10 - - - -
23/02:26pm 21.2 ESE 11 17 1015.9 - 0.0 - Partly cloudy 10 - - - -
23/02:11pm 20.9 ESE 9 13 1015.9 - 0.0 - Partly cloudy 7 - - - -
23/02:00pm 21.6 ESE 8 11 1015.9 - 0.0 - Cloudy 10 - - - -
23/01:30pm 23.1 SE 11 16 1015.9 - 0.0 - Partly cloudy 10 - - - -
23/01:00pm 23.6 SE 11 15 1016.1 - 0.0 - Partly cloudy 10 - - - -
23/12:30pm 23.1 ESE 10 15 1016.2 - 0.0 - - 10 - - - -
23/12:00pm 22.9 SE 10 15 1016.6 - 0.0 - Partly cloudy 10 - - - -
23/11:30am 22.5 SE 11 15 1017.1 - 0.0 - Partly cloudy 10 - - - -
23/11:00am 22.7 ESE 9 14 1017.3 - 0.0 - - 10 - - - -
23/10:30am 23.1 ESE 8 12 1017.7 - 0.0 - Partly cloudy 10 - - - -
23/10:00am 22.2 SE 8 11 1018.1 - 0.0 - Partly cloudy 10 - - - -
23/09:30am 22.1 ESE 9 14 1018.4 - 0.0 - - 10 - - - -
23/09:00am 21.9 ESE 9 14 1018.6 - 0.0 - - 10 - - - -
23/08:30am 21.9 ESE 8 11 1018.6 - 0.0 - - 10 - - - -
23/08:00am 21.5 ESE 8 11 1018.8 - 1.8 - Partly cloudy 10 - - - -
23/07:30am 21.0 E 7 9 1018.7 - 1.8 - Partly cloudy 10 - - - -
23/07:00am 20.9 E 8 10 1018.6 - 1.8 - - 10 - - - -
23/06:30am 20.5 ENE 8 10 1018.2 - 1.8 - - 10 - - - -
23/06:00am 19.5 ENE 9 13 1017.9 - 1.8 - Partly cloudy 10 - - - -
23/05:30am 18.9 ENE 10 14 1017.6 - 1.8 - Partly cloudy 10 - - - -
23/05:00am 18.1 ENE 11 15 1017.6 - 1.8 Rain Cloudy 10 - - - -
23/04:42am 18.1 ENE 14 18 1017.4 - 1.8 - Partly cloudy 10 - - - -
23/04:30am 18.6 ENE 15 22 1017.5 - 1.8 - Partly cloudy 5 - - - -
23/04:15am 18.6 ENE 14 24 1017.4 - 0.2 - Partly cloudy 6 - - - -
23/04:00am 19.1 ENE 13 17 1017.2 - 0.0 - Partly cloudy 10 - - - -
23/03:54am 19.3 ENE 14 18 1017.1 - 0.0 - Partly cloudy 10 - - - -
23/03:30am 20.0 ESE 8 13 1016.9 - 0.0 - Partly cloudy 10 - - - -
23/03:00am 20.1 SE 10 15 1016.9 - 0.0 - Partly cloudy 10 - - - -
23/02:30am 20.2 SE 11 18 1016.6 - 0.0 - Partly cloudy 10 - - - -
23/02:00am 20.4 SE 12 17 1016.9 - 0.0 - Partly cloudy 10 - - - -
23/01:56am 20.3 SE 13 18 1016.9 - 0.0 - Partly cloudy 10 - - - -
23/01:30am 20.7 SE 12 19 1017.2 - 0.0 - Partly cloudy 10 - - - -
23/01:00am 20.7 SE 12 22 1017.7 - 0.0 - Partly cloudy 10 - - - -
23/12:30am 20.6 SE 13 19 1017.8 - 0.0 - Partly cloudy 10 - - - -
23/12:00am 20.6 SE 13 20 1017.6 - 0.0 - Partly cloudy 10 - - - -
 
Date/Time
EST
Temp
°C
Wind Pressure Rain since
9am
mm
Weather Cloud Vis
km
Sea
Height
m
Swell
Dir  Spd
kts
Gust
kts
hPa Trend Height
m
Period
s
Dir
22/11:30pm 20.6 SE 14 21 1017.7 - 0.0 - Partly cloudy 10 - - - -
22/11:00pm 20.7 SE 13 19 1018.0 - 0.0 - Cloudy 10 - - - -
22/10:30pm 20.6 SE 13 17 1018.2 - 0.0 - Partly cloudy 10 - - - -
22/10:00pm 20.5 SE 13 21 1018.2 - 0.0 - Partly cloudy 10 - - - -
22/09:30pm 20.7 ESE 14 22 1018.3 - 0.0 - Partly cloudy 10 - - - -
22/09:00pm 20.6 ESE 14 21 1018.4 - 0.0 - Partly cloudy 10 - - - -
22/08:30pm 20.6 ESE 14 20 1018.5 - 0.0 - Partly cloudy 10 - - - -
22/08:00pm 20.8 ESE 13 21 1018.7 - 0.0 - Cloudy 10 - - - -
22/07:30pm 20.7 ESE 15 21 1018.6 - 0.0 - Partly cloudy 10 - - - -
22/07:00pm 20.6 ESE 13 20 1018.8 - 0.0 - Partly cloudy 10 - - - -
22/06:30pm 20.7 ESE 13 18 1019.0 - 0.0 - Partly cloudy 10 - - - -
22/06:00pm 20.7 ESE 12 19 1018.7 - 0.0 - Partly cloudy 10 - - - -
22/05:30pm 20.8 ESE 14 24 1018.3 - 0.0 - Partly cloudy 10 - - - -
22/05:00pm 20.8 ESE 11 19 1018.1 - 0.0 - Cloudy 10 - - - -
22/04:30pm 20.9 ESE 13 19 1018.1 - 0.0 - Partly cloudy 10 - - - -
22/04:00pm 21.1 ESE 13 19 1018.1 - 0.0 - Partly cloudy 10 - - - -
22/03:30pm 21.1 E 12 18 1018.0 - 0.0 - Partly cloudy 10 - - - -
22/03:00pm 21.2 E 15 21 1018.0 - 0.0 - Partly cloudy 10 - - - -
22/02:30pm 21.4 E 12 20 1018.0 - 0.0 - Partly cloudy 10 - - - -
22/02:00pm 21.7 E 13 20 1018.1 - 0.0 - Cloudy 10 - - - -
22/01:30pm 21.6 E 14 20 1018.1 - 0.0 - Partly cloudy 10 - - - -

Other Formats:

Comma delimited format used in spreadsheet applications
http://www.bom.gov.au/fwo/IDN60701/IDN60701.94996.axf

JavaScript Object Notation format (JSON) in row-major order
http://www.bom.gov.au/fwo/IDN60701/IDN60701.94996.json